[[{"header":{"parameterUnit":"m.s-1","parameterCategory":1,"la1":30.2991,"la2":30.254,"lo1":-89.0895,"lo2":-89.0444,"dy":0.0017,"dx":0.0017,"nx":28,"ny":28,"refTime":"2025-03-17T03:00:00:Z","depth":0,"parameterNumber":2,"parameterNumberName":"U-component_of_WINDS"},"data":[0,0,0,0,0,0,0,0,0,0,0,0,0,0,0,0,0,0,0,0,0,0,0,0,0,0,0,0,0,0,0,0,0,0,0,0,0,0,0,0,0,0,0,0,0,0,0,0,0,0,0,0,0,0,0,0,0,0,-2.9716,-2.9716,0,-2.9776,-2.9777,-2.9777,-2.9757,-2.9756,-2.9755,-2.9754,-2.9816,-2.9819,-2.9822,0,0,0,0,0,0,0,0,0,0,0,0,0,-2.9586,-2.9589,-2.9716,-2.9716,-2.9717,-2.9776,-2.9777,-2.9777,-2.9758,-2.9756,-2.9755,-2.9753,-2.9815,-2.9818,-2.9822,0,0,0,0,0,0,0,0,0,0,0,0,0,-2.9644,-2.9589,-2.9715,-2.9714,-2.9715,-2.9776,-2.9777,-2.9778,-2.9758,-2.9756,-2.9754,-2.9752,-2.9814,-2.9818,-2.9822,-2.9888,0,0,-2.9836,-2.9837,0,0,0,0,0,0,0,0,-2.9641,-2.9649,-2.9714,-2.9715,-2.9715,-2.9757,-2.9754,-2.9815,-2.9759,-2.9742,-2.9754,-2.9751,-2.9798,-2.9804,-2.9819,-2.9891,-2.9894,-2.9836,-2.9839,-2.984,-2.9842,0,0,0,0,0,0,0,-2.9637,-2.9646,-2.9739,-2.9715,-2.9716,-2.9712,-2.9718,-2.9765,-2.978,-2.9743,-2.9742,-2.9749,-2.9798,-2.9815,-2.982,-2.9895,-2.9836,-2.984,-2.9842,-2.9844,-3.0026,-3.0028,0,0,0,0,0,0,-2.9632,-2.9643,-2.9738,-2.9741,-2.9672,-2.9716,-2.9722,-2.9746,-2.9779,-2.9783,-2.9751,-2.9748,-2.9809,-2.9815,-2.9823,-2.9902,-2.984,-2.9844,-2.9847,-3.0024,-3.0026,-3.0029,0,0,0,0,0,0,-2.9629,-2.9641,-2.9735,-2.9692,-2.9704,-2.972,-2.9746,-2.9748,-2.9765,-2.9785,-2.9788,-2.9765,-2.9807,-2.9816,-2.9872,-2.9904,-2.9846,-2.985,-3.0021,-3.0025,-3.0028,-3.0062,0,0,0,0,0,0,-2.9626,-2.964,-2.9664,-2.9692,-2.9706,-2.9783,-2.9748,-2.975,-2.9772,-2.9769,-2.9799,-2.9803,-2.9807,-2.9866,-2.9877,-2.9909,-2.9854,-3.0018,-3.0023,-3.0027,-3.0058,-3.0066,-3.0073,0,0,0,0,0,-2.9621,-2.9671,-2.9665,-2.9677,-2.9736,-2.9785,-2.9792,-2.9796,-2.9775,-2.98,-2.9814,-2.9802,-2.99,-2.9872,-2.9884,-2.9918,-3.0016,-3.0021,-3.0026,-3.0055,-3.0064,-3.0073,0,0,0,0,0,0,-2.9645,-2.9674,-2.9668,-2.9729,-2.9755,-2.9781,-2.9812,-2.9806,-2.9838,-2.9834,-2.9837,-2.9844,-2.9901,-2.9916,-2.9884,-2.9985,-2.9955,-2.9963,-2.9972,-2.9982,-2.9989,-2.9984,-2.9857,0,0,0,0,0,-2.9658,-2.9694,-2.9718,-2.9769,-2.9782,-2.9796,-2.9817,-2.9817,-2.9844,-2.9855,-2.9872,-2.9899,-2.9936,-2.996,-2.9995,-3.0061,-3.0068,-3.0091,-3.0098,-3.0104,-3.011,-3.0147,-3.0158,-3.0045,-3.0045,-3.0045,0,0,-2.9683,-2.9704,-2.9726,-2.9774,-2.9794,-2.9833,-2.9805,-2.9846,-2.9874,-2.9861,-2.9914,-2.9929,-2.996,-3.0021,-3.0049,-3.0035,-3.0144,-3.0111,-3.0115,-3.0118,-3.0154,-3.0164,-3.0174,-3.0049,-3.0048,-3.0048,0,0,-2.9749,-2.9768,-2.9813,-2.9835,-2.9866,-2.9875,-2.9886,-2.9915,-2.9924,-2.9978,-2.9969,-3.0004,-3.0068,-3.009,-3.011,-3.0189,-3.0179,-3.02,-3.0238,-3.0275,-3.0283,-3.0291,-3.0319,-3.0329,-3.0207,-3.0207,-3.0207,0,-2.9777,-2.9833,-2.9837,-2.988,-2.9902,-2.9893,-2.9939,-2.996,-3.0001,-3.0017,-3.0001,-3.0081,-3.0101,-3.0168,-3.0188,-3.0204,-3.0218,-3.0195,-3.0282,-3.029,-3.0297,-3.0324,-3.0334,-3.0209,-3.0209,-3.0209,-3.0208,0,-2.9866,-2.9906,-2.9939,-2.9979,-3.0005,-3.0049,-3.0061,-3.0088,-3.0088,-3.0099,-3.0155,-3.018,-3.022,-3.0237,-3.0236,-3.0305,-3.0295,-3.0281,-3.025,-3.031,-3.0335,-3.0346,-3.0212,-3.0211,-3.0211,-3.021,0,0,-2.9945,-2.9989,-3.0001,-3.002,-3.0055,-3.0087,-3.0132,-3.0172,-3.0195,-3.0225,-3.0263,-3.0319,-3.0306,-3.0329,-3.0332,-3.0364,-3.0425,-3.0346,-3.0346,-3.0359,-3.0503,-3.0512,-3.0524,-3.0421,-3.0423,-3.0424,-3.05,0,-3.0013,-3.0091,-3.0098,-3.0169,-3.0206,-3.02,-3.024,-3.0267,-3.028,-3.0314,-3.0329,-3.0368,-3.0349,-3.0363,-3.0395,-3.0411,-3.0454,-3.0406,-3.0456,-3.0458,-3.0447,-3.0537,-3.0547,-3.0617,-3.051,-3.0512,-3.0513,0,-3.0102,-3.0135,-3.0209,-3.0241,-3.0258,-3.0293,-3.0331,-3.0364,-3.0396,-3.0403,-3.043,-3.043,-3.0478,-3.0448,-3.0515,-3.0482,-3.0504,-3.0516,-3.0519,-3.0522,-3.0487,-3.0542,-3.0639,-3.0649,-3.0529,-3.0527,-3.0526,0,-3.0151,-3.0215,-3.0268,-3.0284,-3.0323,-3.0348,-3.0366,-3.0395,-3.042,-3.0454,-3.047,-3.051,-3.0532,-3.0563,-3.0574,-3.0551,-3.0641,-3.0612,-3.0648,-3.0648,-3.0665,-3.0664,-3.0766,-3.0682,-3.0682,-3.0682,-3.0682,0,-3.0225,-3.0271,-3.029,-3.0323,-3.0375,-3.0384,-3.0435,-3.0452,-3.0479,-3.0515,-3.0514,-3.0548,-3.0561,-3.0599,-3.0608,-3.0662,-3.0672,-3.068,-3.0682,-3.0679,-3.0678,-3.0692,-3.0687,-3.0685,-3.0684,-3.0684,-3.0683,0,-3.0287,-3.0303,-3.036,-3.0393,-3.0403,-3.044,-3.0468,-3.0501,-3.0515,-3.0561,-3.0573,-3.0595,-3.0639,-3.0654,-3.0707,-3.0714,-3.0777,-3.0775,-3.0766,-3.0766,-3.0801,-3.0797,-3.0915,-3.0931,-3.0837,-3.0838,-3.0839,0,-3.0333,-3.0368,-3.0406,-3.043,-3.0449,-3.0488,-3.0513,-3.0525,-3.0552,-3.0592,-3.062,-3.0664,-3.0699,-3.077,-3.0791,-3.0833,-3.0831,-3.087,-3.0837,-3.0834,-3.0831,-3.0828,-3.0832,-3.0875,-3.0876,-3.0877,-3.0877,0,-3.0412,-3.0418,-3.0454,-3.0494,-3.0525,-3.0557,-3.0588,-3.0608,-3.0625,-3.0655,-3.07,-3.0728,-3.0784,-3.0828,-3.0871,-3.089,-3.0887,-3.0888,-3.0899,-3.0895,-3.0888,-3.0892,-3.0781,-3.0885,-3.0884,-3.0883,-3.0883,-3.0883,-3.0466,-3.0498,-3.053,-3.0571,-3.0596,-3.0626,-3.0658,-3.0677,-3.0714,-3.076,-3.0766,-3.0815,-3.0848,-3.0906,-3.0928,-3.0967,-3.0956,-3.0971,-3.0975,-3.0978,-3.0981,-3.0884,-3.0975,-3.0975,-3.0975,-3.0974,-3.0974,0,-3.0544,-3.0565,-3.0603,-3.0647,-3.068,-3.0676,-3.0711,-3.0739,-3.0782,-3.0813,-3.0849,-3.0902,-3.0946,-3.0972,-3.1016,-3.1042,-3.1042,-3.1054,-3.1051,-3.1056,-3.0988,-3.0974,-3.1053,-3.1053,-3.1053,-3.1053,-3.1053,-3.1053,-3.0589,-3.0642,-3.0653,-3.072,-3.0741,-3.0788,-3.0809,-3.0837,-3.0862,-3.0921,-3.0958,-3.0975,-3.1005,-3.1051,-3.1092,-3.1099,-3.1115,-3.1127,-3.1132,-3.1068,-3.106,-3.1052,-3.1039,-3.113,-3.1131,-3.1197,-3.1197,-3.1198]},{"header":{"parameterUnit":"m.s-1","parameterCategory":1,"la1":30.2991,"la2":30.254,"lo1":-89.0895,"lo2":-89.0444,"dy":0.0017,"dx":0.0017,"nx":28,"ny":28,"refTime":"2025-03-17T03:00:00:Z","depth":0,"parameterNumber":3,"parameterNumberName":"V-component_of_WINDS"},"data":[0,0,0,0,0,0,0,0,0,0,0,0,0,0,0,0,0,0,0,0,0,0,0,0,0,0,0,0,0,0,0,0,0,0,0,0,0,0,0,0,0,0,0,0,0,0,0,0,0,0,0,0,0,0,0,0,0,0,4.152,4.152,0,4.1514,4.1514,4.1514,4.1529,4.1529,4.153,4.153,4.1519,4.1518,4.1517,0,0,0,0,0,0,0,0,0,0,0,0,0,4.1543,4.1542,4.152,4.152,4.152,4.1514,4.1514,4.1514,4.1529,4.1529,4.153,4.1531,4.1519,4.1518,4.1517,0,0,0,0,0,0,0,0,0,0,0,0,0,4.1534,4.1542,4.152,4.1527,4.1528,4.1514,4.1514,4.1514,4.1529,4.153,4.153,4.1531,4.1519,4.1518,4.1517,4.1495,0,0,4.1514,4.1513,0,0,0,0,0,0,0,0,4.1535,4.1533,4.1526,4.1527,4.1527,4.1523,4.1517,4.1507,4.1529,4.1528,4.153,4.1531,4.1519,4.1518,4.1515,4.1494,4.1494,4.1513,4.1513,4.1512,4.1512,0,0,0,0,0,0,0,4.1535,4.1534,4.1518,4.1526,4.1527,4.1529,4.1529,4.1516,4.1519,4.1528,4.1529,4.1529,4.152,4.1516,4.1515,4.1494,4.1513,4.1512,4.1512,4.1511,4.1456,4.1455,0,0,0,0,0,0,4.1535,4.1534,4.1518,4.1517,4.1533,4.1528,4.1528,4.1524,4.152,4.152,4.1528,4.1529,4.1518,4.1516,4.1515,4.1489,4.1512,4.1511,4.151,4.1456,4.1456,4.1455,0,0,0,0,0,0,4.1536,4.1534,4.1518,4.1526,4.1524,4.1527,4.1522,4.1523,4.152,4.152,4.152,4.1524,4.1518,4.1516,4.15,4.1489,4.1511,4.151,4.1457,4.1456,4.1455,4.1438,0,0,0,0,0,0,4.1536,4.1534,4.1526,4.1526,4.1524,4.1505,4.1521,4.1522,4.1518,4.152,4.1516,4.1516,4.1519,4.1502,4.1499,4.1488,4.1509,4.1458,4.1457,4.1455,4.1439,4.1436,4.1434,0,0,0,0,0,4.1537,4.152,4.1526,4.1524,4.1514,4.1504,4.1503,4.1508,4.1517,4.1509,4.1509,4.1516,4.1491,4.15,4.1497,4.1485,4.1459,4.1457,4.1456,4.1441,4.1437,4.1434,0,0,0,0,0,0,4.1517,4.152,4.1526,4.1509,4.1507,4.1507,4.1497,4.1504,4.1497,4.1499,4.1504,4.1503,4.1486,4.1484,4.1494,4.1464,4.1476,4.1474,4.1466,4.1462,4.146,4.146,4.1508,0,0,0,0,0,4.1511,4.1503,4.1506,4.1491,4.1489,4.1493,4.1489,4.1493,4.149,4.1489,4.1488,4.1483,4.1475,4.1468,4.146,4.144,4.1439,4.143,4.1427,4.1425,4.1422,4.1412,4.1408,4.1449,4.1449,4.1449,0,0,4.1497,4.1498,4.1493,4.1487,4.1485,4.1477,4.1492,4.1482,4.1475,4.1487,4.1472,4.1471,4.1467,4.1449,4.1441,4.1447,4.1411,4.1422,4.142,4.1419,4.141,4.1406,4.1403,4.1448,4.1448,4.1448,0,0,4.1468,4.1468,4.1456,4.1455,4.1454,4.1457,4.1454,4.1454,4.1454,4.144,4.1449,4.1441,4.1425,4.1422,4.1418,4.1391,4.1397,4.1388,4.1372,4.1362,4.1359,4.1356,4.1347,4.1343,4.1386,4.1386,4.1386,0,4.1451,4.144,4.1448,4.1439,4.1436,4.1448,4.1435,4.1433,4.1428,4.1425,4.1433,4.1415,4.1413,4.1395,4.1388,4.1385,4.1381,4.1388,4.1359,4.1356,4.1354,4.1345,4.1341,4.1385,4.1385,4.1385,4.1385,0,4.1419,4.1412,4.1402,4.1399,4.1395,4.1384,4.1389,4.1384,4.139,4.1392,4.1378,4.1376,4.1368,4.1364,4.1368,4.1347,4.1351,4.1359,4.1371,4.1349,4.134,4.1337,4.1383,4.1383,4.1384,4.1384,0,0,4.1376,4.138,4.1376,4.1376,4.1376,4.137,4.1359,4.1353,4.1349,4.1346,4.1337,4.1324,4.1332,4.1328,4.1332,4.1323,4.1303,4.1332,4.1332,4.1327,4.128,4.1274,4.127,4.1307,4.1306,4.1306,4.128,0,4.1348,4.1332,4.134,4.1321,4.1315,4.1327,4.1318,4.1316,4.1318,4.1312,4.1314,4.1305,4.1316,4.1314,4.1306,4.1307,4.1293,4.1309,4.1298,4.1297,4.1299,4.1265,4.1259,4.1235,4.1277,4.1276,4.1276,0,4.1313,4.1311,4.1293,4.1296,4.1293,4.1285,4.1281,4.1275,4.1274,4.1276,4.1273,4.1279,4.1268,4.1281,4.1266,4.1277,4.1273,4.1273,4.1272,4.1271,4.1285,4.1263,4.1227,4.1223,4.1271,4.1271,4.1271,0,4.1284,4.1276,4.1265,4.1264,4.1267,4.1261,4.1261,4.1261,4.1258,4.1254,4.1252,4.1247,4.1244,4.1239,4.1244,4.1252,4.1228,4.1241,4.1229,4.1229,4.1222,4.1223,4.1185,4.122,4.122,4.122,4.122,0,4.1252,4.124,4.1252,4.1245,4.1232,4.1241,4.1228,4.123,4.123,4.1223,4.1233,4.1226,4.1233,4.1226,4.123,4.1217,4.1215,4.1216,4.1217,4.1215,4.1215,4.1213,4.1214,4.1219,4.122,4.122,4.122,0,4.1217,4.1224,4.1213,4.1217,4.1218,4.1209,4.1212,4.1206,4.1209,4.12,4.1199,4.1204,4.1197,4.1202,4.1193,4.1196,4.118,4.1183,4.1181,4.1181,4.1169,4.117,4.1128,4.1123,4.1162,4.1161,4.1161,0,4.1196,4.1188,4.1192,4.1189,4.119,4.1185,4.1182,4.1191,4.1187,4.1187,4.118,4.1174,4.117,4.1158,4.116,4.1155,4.1158,4.1144,4.1157,4.1156,4.1158,4.1158,4.1158,4.1141,4.114,4.114,4.1139,0,4.1158,4.1163,4.1159,4.1158,4.1155,4.1153,4.1152,4.1149,4.1158,4.1154,4.1148,4.1145,4.1138,4.1132,4.1128,4.1128,4.1135,4.1136,4.1133,4.113,4.113,4.113,4.1173,4.1136,4.1137,4.1137,4.1137,4.1137,4.113,4.1124,4.1126,4.1123,4.1123,4.1123,4.1117,4.1121,4.1117,4.1113,4.1119,4.1111,4.1111,4.1107,4.1106,4.11,4.1105,4.1101,4.11,4.1098,4.1097,4.1131,4.1099,4.1099,4.1099,4.1099,4.1099,0,4.1093,4.1096,4.1092,4.1092,4.1089,4.1098,4.1098,4.1095,4.1089,4.1089,4.1086,4.1079,4.1074,4.1077,4.1072,4.1067,4.107,4.1065,4.1065,4.1065,4.1092,4.1095,4.1063,4.1063,4.1063,4.1063,4.1063,4.1063,4.1073,4.1064,4.1069,4.106,4.1062,4.1057,4.1056,4.1056,4.1056,4.1049,4.1045,4.1048,4.1049,4.1045,4.1041,4.1042,4.1039,4.1033,4.1035,4.106,4.1063,4.1067,4.107,4.1033,4.1033,4.101,4.101,4.1009]}]]